Weather History for Waukesha, WI

Change the Weather History Date:

Sunday, March 6, 2011

  Actual Average Record
Temperature  
Mean Temperature 21 °F -  
Max Temperature 28 °F 39 °F 66 °F (1983)
Min Temperature 14 °F 21 °F -6 °F (1960)
Degree Days  
Heating Degree Days 44    
Moisture  
Dew Point 14 °F    
Average Humidity 78    
Maximum Humidity 88    
Minimum Humidity 59    
Precipitation  
Precipitation 0.00 in - - ()
Sea Level Pressure  
Sea Level Pressure 30.29 in    
Wind  
Wind Speed 4 mph (North)    
Max Wind Speed 8 mph    
Max Gust Speed -    
Visibility 10 miles    
Events      
Averages and records for this station are not official NWS values.
T = Trace of Precipitation, MM = Missing Value Source: NWS Daily Summary

Daily Weather History Graph

Daily Weather History Graph

Search for Another Location

Airport:

Trip Planner

Search our weather history database for the weather conditions in past years. The results will help you decide how hot, cold, wet, or windy it might be!

Date:

Astronomy

Mar. 06, 2011 Rise Set
Actual Time 6:21 AM CST 5:48 PM CST
Civil Twilight 5:52 AM CST 6:16 PM CST
Nautical Twilight 5:19 AM CST 6:49 PM CST
Astronomical Twilight 4:46 AM CST 7:22 PM CST
Moon 6:39 AM CST (3/6) 7:56 PM CST (3/6)
Length of Visible Light 12h 23m
Length of Day
11h 27m
Waxing Crescent, 3% of the Moon is Illuminated
Mar 6
Waxing Crescent
Mar 12
First Quarter
Mar 19
Full
Mar 26
Last Quarter
Apr 3
New

Hourly Weather History & Observations

Time (CST) Temp. Windchill Dew Point Humidity Pressure Visibility Wind Dir Wind Speed Gust Speed Precip Events Conditions
12:14 AM 18.0 °F 9.8 °F 9.7 °F 70% 30.30 in 10.0 mi North 5.8 mph - N/A   Clear
12:34 AM 17.4 °F 10.4 °F 9.5 °F 71% 30.31 in 10.0 mi North 4.6 mph - N/A   Clear
12:54 AM 16.5 °F 6.9 °F 8.6 °F 71% 30.32 in 10.0 mi North 6.9 mph - N/A   Clear
1:14 AM 16.0 °F 6.3 °F 8.1 °F 71% 30.31 in 10.0 mi North 6.9 mph - N/A   Clear
1:34 AM 15.6 °F 7.0 °F 8.6 °F 74% 30.32 in 10.0 mi North 5.8 mph - N/A   Scattered Clouds
1:54 AM 15.4 °F 6.8 °F 9.1 °F 76% 30.31 in 10.0 mi NNW 5.8 mph - N/A   Scattered Clouds
2:14 AM 15.4 °F 8.1 °F 9.5 °F 77% 30.31 in 10.0 mi NNW 4.6 mph - N/A   Mostly Cloudy
2:34 AM 15.6 °F 10.0 °F 10.0 °F 79% 30.31 in 10.0 mi NW 3.5 mph - N/A   Overcast
2:54 AM 14.9 °F 7.5 °F 9.3 °F 79% 30.30 in 10.0 mi NW 4.6 mph - N/A   Overcast
3:14 AM 14.5 °F 8.8 °F 9.5 °F 80% 30.30 in 10.0 mi NW 3.5 mph - N/A   Overcast
3:34 AM 14.4 °F - 9.5 °F 81% 30.29 in 10.0 mi Calm Calm - N/A   Overcast
3:54 AM 14.0 °F - 9.5 °F 82% 30.30 in 10.0 mi Calm Calm - N/A   Overcast
4:14 AM 14.9 °F 7.5 °F 10.4 °F 82% 30.31 in 10.0 mi WNW 4.6 mph - N/A   Overcast
4:34 AM 14.7 °F 9.0 °F 10.4 °F 83% 30.30 in 10.0 mi NW 3.5 mph - N/A   Overcast
4:54 AM 14.7 °F 7.3 °F 10.4 °F 83% 30.32 in 10.0 mi WNW 4.6 mph - N/A   Overcast
6:45 AM 14.0 °F 5.1 °F 10.4 °F 86% 30.33 in 10.0 mi NNW 5.8 mph - N/A   Mostly Cloudy
7:45 AM 15.8 °F 7.2 °F 10.4 °F 79% 30.34 in 10.0 mi NW 5.8 mph - N/A   Overcast
8:45 AM 19.4 °F 11.5 °F 14.0 °F 80% 30.33 in 10.0 mi North 5.8 mph - N/A   Overcast
9:45 AM 23.0 °F 14.7 °F 15.8 °F 74% 30.33 in 10.0 mi NE 6.9 mph - N/A   Overcast
10:45 AM 24.8 °F 17.9 °F 17.6 °F 74% 30.35 in 10.0 mi ENE 5.8 mph - N/A   Overcast
11:45 AM 26.6 °F 22.6 °F 15.8 °F 64% 30.35 in 10.0 mi NNE 3.5 mph - N/A   Overcast
12:45 PM 26.6 °F - 17.6 °F 69% 30.32 in 10.0 mi Calm Calm - N/A   Overcast
1:45 PM 28.4 °F 20.4 °F 17.6 °F 64% 30.29 in 10.0 mi ENE 8.1 mph - N/A   Scattered Clouds
2:45 PM 28.4 °F 21.2 °F 15.8 °F 59% 30.28 in 10.0 mi ENE 6.9 mph - N/A   Clear
3:45 PM 28.4 °F 21.2 °F 15.8 °F 59% 30.27 in 10.0 mi ENE 6.9 mph - N/A   Clear
4:45 PM 28.4 °F 24.6 °F 17.6 °F 64% 30.27 in 10.0 mi NNE 3.5 mph - N/A   Clear
5:45 PM 24.8 °F 16.9 °F 17.6 °F 74% 30.26 in 10.0 mi ENE 6.9 mph - N/A   Clear
6:45 PM 23.0 °F 14.7 °F 17.6 °F 80% 30.27 in 10.0 mi ENE 6.9 mph - N/A   Clear
7:45 PM 21.2 °F - 17.6 °F 86% 30.27 in 10.0 mi Calm Calm - N/A   Clear
8:14 PM 21.4 °F 16.6 °F 16.7 °F 82% 30.26 in 10.0 mi ENE 3.5 mph - N/A   Scattered Clouds
8:34 PM 20.3 °F - 16.2 °F 84% 30.26 in 10.0 mi Calm Calm - N/A   Clear
8:45 PM 21.2 °F - 17.6 °F 86% 30.26 in 10.0 mi Calm Calm - N/A   Clear
8:54 PM 20.3 °F - 16.0 °F 83% 30.26 in 10.0 mi Calm Calm - N/A   Clear
9:14 PM 19.9 °F - 15.8 °F 84% 30.25 in 10.0 mi Calm Calm - N/A   Scattered Clouds
9:34 PM 20.5 °F 14.0 °F 16.7 °F 85% 30.25 in 10.0 mi NE 4.6 mph - N/A   Scattered Clouds
9:54 PM 21.2 °F - 16.7 °F 83% 30.25 in 10.0 mi Calm Calm - N/A   Scattered Clouds
10:14 PM 19.0 °F - 15.3 °F 85% 30.24 in 10.0 mi Calm Calm - N/A   Clear
10:34 PM 19.0 °F - 15.6 °F 87% 30.24 in 10.0 mi Calm Calm - N/A   Clear
10:54 PM 19.0 °F - 15.4 °F 86% 30.23 in 10.0 mi Calm Calm - N/A   Clear
11:14 PM 18.9 °F - 15.8 °F 88% 30.23 in 10.0 mi Calm Calm - N/A   Clear
11:34 PM 17.6 °F - 14.2 °F 86% 30.23 in 10.0 mi Calm Calm - N/A   Clear
11:54 PM 17.4 °F - 14.5 °F 88% 30.23 in 10.0 mi Calm Calm - N/A   Scattered Clouds